[[{"header":{"parameterUnit":"m.s-1","parameterCategory":1,"la1":30.2991,"la2":30.254,"lo1":-89.0895,"lo2":-89.0444,"dy":0.0017,"dx":0.0017,"nx":28,"ny":28,"refTime":"2025-11-15T03:00:00:Z","depth":0,"parameterNumber":2,"parameterNumberName":"U-component_of_WINDS"},"data":[0,0,0,0,0,0,0,0,0,0,0,0,0,0,0,0,0,0,0,0,0,0,0,0,0,0,0,0,0,0,0,0,0,0,0,0,0,0,0,0,0,0,0,0,0,0,0,0,0,0,0,0,0,0,0,0,0,0,-1.0771,-1.0772,0,-1.0848,-1.0849,-1.085,-1.0827,-1.0825,-1.0824,-1.0822,-1.0903,-1.0906,-1.091,0,0,0,0,0,0,0,0,0,0,0,0,0,-1.0608,-1.0611,-1.0771,-1.0772,-1.0773,-1.0848,-1.0849,-1.085,-1.0827,-1.0825,-1.0823,-1.0822,-1.0901,-1.0906,-1.091,0,0,0,0,0,0,0,0,0,0,0,0,0,-1.0681,-1.0612,-1.0771,-1.0771,-1.0772,-1.0847,-1.0849,-1.085,-1.0828,-1.0825,-1.0823,-1.0821,-1.09,-1.0905,-1.0911,-1.0992,0,0,-1.0927,-1.093,0,0,0,0,0,0,0,0,-1.0677,-1.0687,-1.077,-1.0771,-1.0772,-1.0825,-1.0821,-1.0898,-1.0828,-1.0807,-1.0822,-1.082,-1.0879,-1.0886,-1.0906,-1.0996,-1.0999,-1.0928,-1.0931,-1.0933,-1.0935,0,0,0,0,0,0,0,-1.0672,-1.0684,-1.0802,-1.0771,-1.0773,-1.0768,-1.0775,-1.0835,-1.0855,-1.0808,-1.0807,-1.0816,-1.0879,-1.09,-1.0907,-1.1,-1.0928,-1.0932,-1.0936,-1.0938,-1.1161,-1.1163,0,0,0,0,0,0,-1.0666,-1.068,-1.0799,-1.0804,-1.0718,-1.0773,-1.0781,-1.0811,-1.0855,-1.0859,-1.0818,-1.0815,-1.0892,-1.0901,-1.091,-1.1008,-1.0933,-1.0938,-1.0942,-1.1158,-1.1161,-1.1164,0,0,0,0,0,0,-1.0663,-1.0677,-1.0796,-1.0742,-1.0756,-1.0778,-1.0811,-1.0813,-1.0835,-1.0862,-1.0866,-1.0836,-1.0891,-1.0902,-1.0972,-1.101,-1.0941,-1.0946,-1.1155,-1.1159,-1.1163,-1.1204,0,0,0,0,0,0,-1.0658,-1.0676,-1.0706,-1.0742,-1.0759,-1.0856,-1.0814,-1.0817,-1.0844,-1.084,-1.088,-1.0884,-1.089,-1.0964,-1.0977,-1.1016,-1.095,-1.1152,-1.1157,-1.1162,-1.1199,-1.1208,-1.1217,0,0,0,0,0,-1.0652,-1.0715,-1.0708,-1.0722,-1.0798,-1.0858,-1.0868,-1.0873,-1.0847,-1.0878,-1.0896,-1.0883,-1.1004,-1.0971,-1.0986,-1.1027,-1.1149,-1.1155,-1.1161,-1.1195,-1.1207,-1.1217,0,0,0,0,0,0,-1.0684,-1.072,-1.0712,-1.0789,-1.082,-1.0854,-1.0893,-1.0885,-1.0925,-1.092,-1.0925,-1.0934,-1.1005,-1.1023,-1.0986,-1.1108,-1.1073,-1.1082,-1.1093,-1.1105,-1.1114,-1.1107,-1.0955,0,0,0,0,0,-1.0699,-1.0745,-1.0774,-1.0839,-1.0855,-1.0872,-1.0898,-1.0899,-1.0932,-1.0946,-1.0968,-1.1002,-1.1047,-1.1077,-1.1121,-1.1202,-1.121,-1.1238,-1.1247,-1.1254,-1.1262,-1.1306,-1.1318,-1.1184,-1.1184,-1.1184,0,0,-1.0733,-1.0758,-1.0786,-1.0846,-1.087,-1.0917,-1.0883,-1.0934,-1.097,-1.0954,-1.102,-1.1038,-1.1076,-1.1151,-1.1185,-1.1168,-1.1301,-1.1262,-1.1267,-1.1271,-1.1313,-1.1326,-1.1337,-1.1188,-1.1187,-1.1187,0,0,-1.0816,-1.0841,-1.0896,-1.0922,-1.096,-1.097,-1.0984,-1.1019,-1.103,-1.1097,-1.1086,-1.1128,-1.1207,-1.1234,-1.1258,-1.1353,-1.1343,-1.1368,-1.1414,-1.1457,-1.1467,-1.1476,-1.151,-1.1522,-1.1375,-1.1376,-1.1376,0,-1.0853,-1.0923,-1.0927,-1.0979,-1.1005,-1.0993,-1.105,-1.1075,-1.1125,-1.1144,-1.1125,-1.1223,-1.1248,-1.1329,-1.1352,-1.1372,-1.1388,-1.1362,-1.1465,-1.1475,-1.1483,-1.1515,-1.1528,-1.1378,-1.1378,-1.1378,-1.1377,0,-1.0965,-1.1014,-1.1055,-1.1103,-1.1134,-1.1189,-1.1202,-1.1233,-1.1232,-1.1245,-1.1313,-1.1342,-1.1391,-1.1411,-1.1411,-1.1493,-1.1481,-1.1463,-1.1428,-1.1499,-1.1529,-1.1541,-1.1382,-1.1381,-1.138,-1.138,0,0,-1.107,-1.112,-1.1135,-1.1156,-1.1197,-1.1235,-1.129,-1.1337,-1.1364,-1.1399,-1.1445,-1.1512,-1.1496,-1.1524,-1.1526,-1.1564,-1.1637,-1.1542,-1.1543,-1.1558,-1.1728,-1.174,-1.1754,-1.1631,-1.1633,-1.1635,-1.1725,0,-1.1157,-1.1251,-1.1256,-1.1342,-1.1387,-1.1377,-1.1424,-1.1455,-1.1469,-1.151,-1.1526,-1.1573,-1.1549,-1.1565,-1.1602,-1.162,-1.1671,-1.1614,-1.1673,-1.1675,-1.1663,-1.177,-1.1783,-1.1867,-1.1737,-1.1739,-1.174,0,-1.127,-1.1308,-1.1398,-1.1433,-1.1452,-1.1494,-1.1538,-1.1577,-1.1612,-1.162,-1.1651,-1.1648,-1.1705,-1.1668,-1.1746,-1.1707,-1.1732,-1.1745,-1.1748,-1.1753,-1.1711,-1.1777,-1.1893,-1.1906,-1.1759,-1.1757,-1.1756,0,-1.1336,-1.141,-1.1473,-1.1492,-1.1535,-1.1565,-1.1584,-1.1616,-1.1644,-1.1683,-1.1702,-1.1747,-1.1772,-1.1807,-1.1818,-1.179,-1.1895,-1.1859,-1.1903,-1.1903,-1.1924,-1.1923,-1.2045,-1.1943,-1.1942,-1.1942,-1.1942,0,-1.1431,-1.1487,-1.1503,-1.1542,-1.1604,-1.1611,-1.1672,-1.169,-1.1719,-1.1761,-1.1756,-1.1796,-1.1808,-1.185,-1.1859,-1.1922,-1.1933,-1.1941,-1.1943,-1.1941,-1.194,-1.1956,-1.195,-1.1945,-1.1945,-1.1944,-1.1944,0,-1.1515,-1.1528,-1.1597,-1.1631,-1.1641,-1.1685,-1.1715,-1.1753,-1.1766,-1.182,-1.1833,-1.1855,-1.1905,-1.1919,-1.1979,-1.1985,-1.2058,-1.2055,-1.2046,-1.2046,-1.2088,-1.2083,-1.2225,-1.2243,-1.2129,-1.213,-1.2131,0,-1.1574,-1.1616,-1.1655,-1.1683,-1.1703,-1.1748,-1.1776,-1.1785,-1.1815,-1.1859,-1.1891,-1.194,-1.198,-1.206,-1.2081,-1.2128,-1.2125,-1.2171,-1.2131,-1.2128,-1.2124,-1.2121,-1.2125,-1.2178,-1.2179,-1.218,-1.2181,0,-1.1677,-1.1682,-1.1723,-1.1767,-1.1801,-1.1836,-1.1869,-1.1893,-1.1906,-1.1941,-1.1991,-1.2022,-1.2083,-1.2132,-1.2178,-1.2199,-1.2193,-1.2194,-1.2206,-1.2204,-1.2197,-1.22,-1.2065,-1.219,-1.2189,-1.2188,-1.2188,-1.2188,-1.175,-1.1787,-1.182,-1.1865,-1.1892,-1.1923,-1.196,-1.1978,-1.202,-1.207,-1.2073,-1.2128,-1.2163,-1.2225,-1.2248,-1.2291,-1.2278,-1.2296,-1.23,-1.2304,-1.2307,-1.2191,-1.23,-1.23,-1.23,-1.23,-1.2299,0,-1.1852,-1.1873,-1.1915,-1.1962,-1.1998,-1.1989,-1.2026,-1.2057,-1.2105,-1.2137,-1.2176,-1.2235,-1.2282,-1.2308,-1.2355,-1.2385,-1.2383,-1.2397,-1.2394,-1.2399,-1.2317,-1.2301,-1.2398,-1.2398,-1.2398,-1.2398,-1.2398,-1.2397,-1.1909,-1.1971,-1.1979,-1.2054,-1.2075,-1.2128,-1.215,-1.2179,-1.2205,-1.227,-1.2309,-1.2325,-1.2356,-1.2405,-1.2449,-1.2455,-1.2472,-1.2488,-1.2492,-1.2415,-1.2405,-1.2395,-1.238,-1.2492,-1.2492,-1.257,-1.2571,-1.2572]},{"header":{"parameterUnit":"m.s-1","parameterCategory":1,"la1":30.2991,"la2":30.254,"lo1":-89.0895,"lo2":-89.0444,"dy":0.0017,"dx":0.0017,"nx":28,"ny":28,"refTime":"2025-11-15T03:00:00:Z","depth":0,"parameterNumber":3,"parameterNumberName":"V-component_of_WINDS"},"data":[0,0,0,0,0,0,0,0,0,0,0,0,0,0,0,0,0,0,0,0,0,0,0,0,0,0,0,0,0,0,0,0,0,0,0,0,0,0,0,0,0,0,0,0,0,0,0,0,0,0,0,0,0,0,0,0,0,0,1.5528,1.5527,0,1.5445,1.5444,1.5443,1.547,1.5472,1.5473,1.5475,1.538,1.5376,1.5372,0,0,0,0,0,0,0,0,0,0,0,0,0,1.5704,1.5701,1.5528,1.5527,1.5526,1.5445,1.5444,1.5442,1.547,1.5472,1.5474,1.5476,1.5382,1.5377,1.5371,0,0,0,0,0,0,0,0,0,0,0,0,0,1.5625,1.57,1.5528,1.553,1.553,1.5445,1.5444,1.5442,1.5469,1.5472,1.5475,1.5477,1.5383,1.5377,1.5371,1.5277,0,0,1.5351,1.5349,0,0,0,0,0,0,0,0,1.5629,1.5618,1.5531,1.553,1.5529,1.5471,1.5471,1.5386,1.5468,1.5492,1.5475,1.5478,1.5407,1.5399,1.5377,1.5272,1.5268,1.5351,1.5347,1.5344,1.5342,0,0,0,0,0,0,0,1.5635,1.5622,1.5495,1.553,1.5528,1.5533,1.5524,1.5455,1.5435,1.549,1.5492,1.5482,1.5407,1.5383,1.5375,1.5267,1.5351,1.5345,1.5341,1.5339,1.5082,1.5079,0,0,0,0,0,0,1.5642,1.5626,1.5498,1.5492,1.5587,1.5527,1.5518,1.5486,1.5436,1.5431,1.548,1.5484,1.5393,1.5383,1.5372,1.5259,1.5344,1.5338,1.5335,1.5085,1.5081,1.5078,0,0,0,0,0,0,1.5646,1.563,1.5501,1.556,1.5544,1.5522,1.5486,1.5483,1.546,1.5428,1.5424,1.5459,1.5395,1.5381,1.5301,1.5256,1.5335,1.533,1.5088,1.5084,1.508,1.5033,0,0,0,0,0,0,1.565,1.5631,1.5597,1.5559,1.5541,1.5434,1.5483,1.548,1.545,1.5454,1.5408,1.5403,1.5396,1.5311,1.5295,1.5249,1.5325,1.5092,1.5086,1.5081,1.5038,1.5027,1.5018,0,0,0,0,0,1.5657,1.5585,1.5595,1.5579,1.5498,1.5431,1.542,1.5416,1.5446,1.541,1.539,1.5404,1.5264,1.5302,1.5285,1.5236,1.5095,1.5088,1.5081,1.5043,1.5029,1.5018,0,0,0,0,0,0,1.5613,1.558,1.5591,1.5505,1.5471,1.5436,1.539,1.5402,1.5356,1.5362,1.5356,1.5345,1.5264,1.5242,1.5285,1.5143,1.5184,1.5173,1.516,1.5147,1.5137,1.5144,1.5319,0,0,0,0,0,1.5595,1.5546,1.5518,1.5445,1.5428,1.5412,1.5383,1.5383,1.5347,1.5331,1.5306,1.5267,1.5215,1.518,1.513,1.5036,1.5026,1.4994,1.4984,1.4976,1.4966,1.4916,1.4901,1.5056,1.5056,1.5056,0,0,1.5554,1.5529,1.5498,1.5436,1.541,1.5358,1.54,1.5342,1.5303,1.5321,1.5246,1.5226,1.5183,1.5096,1.5056,1.5075,1.4922,1.4967,1.4961,1.4955,1.4907,1.4892,1.4879,1.5051,1.5052,1.5053,0,0,1.5453,1.543,1.5367,1.5342,1.5303,1.5294,1.5279,1.5242,1.5231,1.5156,1.517,1.5121,1.5031,1.5,1.4973,1.4864,1.4874,1.4847,1.4793,1.4744,1.4732,1.4721,1.4682,1.4668,1.4838,1.4838,1.4838,0,1.5406,1.5331,1.5333,1.5275,1.5247,1.5266,1.5202,1.5175,1.5121,1.51,1.5123,1.5012,1.4984,1.4891,1.4865,1.4842,1.4824,1.4851,1.4734,1.4723,1.4713,1.4676,1.4661,1.4835,1.4835,1.4835,1.4836,0,1.5275,1.5223,1.5176,1.5128,1.5095,1.5033,1.5024,1.499,1.4994,1.4981,1.4905,1.4873,1.4817,1.4795,1.4796,1.4702,1.4716,1.4736,1.4776,1.4695,1.466,1.4646,1.483,1.4831,1.4832,1.4833,0,0,1.5142,1.5098,1.5081,1.506,1.5021,1.4979,1.4919,1.4868,1.4839,1.4801,1.4749,1.4674,1.4695,1.4663,1.4662,1.4619,1.4535,1.4645,1.4644,1.4625,1.4429,1.4413,1.4396,1.4543,1.454,1.4538,1.4432,0,1.5037,1.4935,1.4937,1.4841,1.4792,1.4811,1.4759,1.4728,1.4715,1.467,1.4655,1.4602,1.4633,1.4614,1.4573,1.4554,1.4495,1.4562,1.4493,1.449,1.4502,1.4378,1.436,1.4262,1.4419,1.4416,1.4415,0,1.4901,1.4864,1.4765,1.4735,1.4714,1.4667,1.4622,1.458,1.4545,1.4539,1.4506,1.4512,1.4449,1.4493,1.4405,1.4451,1.4423,1.4409,1.4405,1.4397,1.4447,1.4366,1.4231,1.4216,1.4393,1.4395,1.4396,0,1.4814,1.4738,1.467,1.4651,1.4614,1.4581,1.4563,1.4532,1.4502,1.4461,1.4442,1.4393,1.4366,1.4328,1.432,1.4353,1.4232,1.4275,1.4224,1.4224,1.4196,1.4197,1.4053,1.418,1.418,1.418,1.418,0,1.4697,1.4635,1.4631,1.4588,1.4519,1.4521,1.4452,1.4437,1.4409,1.4363,1.4375,1.4331,1.4324,1.4277,1.427,1.4199,1.4186,1.4178,1.4177,1.4177,1.4178,1.4157,1.4163,1.4176,1.4177,1.4178,1.4178,0,1.4586,1.4581,1.4508,1.4481,1.4472,1.4423,1.4398,1.4357,1.4347,1.4288,1.4274,1.4257,1.4204,1.4193,1.4128,1.4123,1.4039,1.4044,1.4051,1.4051,1.4001,1.4005,1.3837,1.3815,1.3957,1.3955,1.3954,0,1.4511,1.4465,1.4434,1.4406,1.4388,1.4342,1.4313,1.4313,1.4281,1.424,1.4203,1.4152,1.411,1.4023,1.4003,1.3954,1.3958,1.3903,1.395,1.3952,1.3957,1.3959,1.3955,1.3893,1.3891,1.389,1.3889,0,1.4379,1.4379,1.4339,1.4298,1.4264,1.423,1.4199,1.4174,1.417,1.4134,1.4081,1.4049,1.3986,1.3933,1.3885,1.3864,1.3875,1.3875,1.386,1.3859,1.3865,1.3861,1.4026,1.3878,1.3879,1.388,1.3881,1.3881,1.4283,1.4244,1.4217,1.4172,1.4149,1.412,1.408,1.4068,1.4025,1.3975,1.3977,1.3919,1.3886,1.3823,1.38,1.3753,1.377,1.3749,1.3743,1.3738,1.3733,1.3874,1.3744,1.3744,1.3745,1.3745,1.3745,0,1.4151,1.4136,1.4095,1.4052,1.4016,1.4035,1.4001,1.3969,1.3919,1.3889,1.385,1.379,1.374,1.3718,1.3669,1.3636,1.364,1.3623,1.3625,1.362,1.3721,1.3738,1.3621,1.3621,1.3621,1.3621,1.3621,1.3621,1.4078,1.4013,1.401,1.3934,1.3918,1.3864,1.3844,1.3816,1.3793,1.3727,1.3687,1.3675,1.3648,1.3598,1.3553,1.3547,1.3528,1.3509,1.3506,1.36,1.3612,1.3624,1.3641,1.3505,1.3505,1.3409,1.3408,1.3407]}]]